sat.trackr.live / text

‹ back to catalog

NAPA-1

NORAD 46320 · 2020-061BA

PAYLOAD ACTIVE UNKNOWN

§ Identity

Operator
Country
THAI
Launch date
2020-09-03
Launch site
FRGUI
Launch vehicle
Mass (kg)
RCS (m²)

External: N2YO · Heavens-Above · Gunter

§ Orbital elements

Epoch: 2026-09-20T04:06:01.149696Z

Period
90.80 min
Inclination
97.2323°
Eccentricity
0.0002315
Mean motion
15.85989076 rev/d
Perigee alt
312.0 km
Apogee alt
315.1 km
Semi-major
6,691.7 km
B*
5.9155e-4
RAAN
341.5005°
Arg perigee
217.6386°
Mean anomaly
142.4723°
Rev number
33,669

§ Raw data

NAPA-11 46320U 20061BA  26263.17084664  .00146685  00000+0  59155-3 0  99962 46320  97.2323 341.5005 0002315 217.6386 142.4723 15.85989076336693

JSON: /api/v1/satellites/46320 · /tle

For live sub-satellite position, see the globe view (requires WebGL).

§ Visibility from observer

Set your observer location to see the next 7 days of passes ≥ 10°. The values pass through the URL so the page stays shareable.

No JS? Fill the form by hand. The geolocation button needs JavaScript.

§ Radio — SatNOGS DB

ModeDescriptionDownlinkUplink
BPSK Downlink 401.125 MHz

1 transmitter · refreshed weekly from db.satnogs.org